Providence, RI

9:01 PM EDT on April 30, 2017 (GMT -0400)
Green State

Weather History for KPVD - November, 2012

Change the Weather History Date:

Wednesday, November 7, 2012

  Actual Average Record
Temperature  
Mean Temperature 39 °F 47 °F  
Max Temperature 45 °F 56 °F 74 °F (1938)
Min Temperature 32 °F 38 °F 26 °F (1931)
Degree Days  
Heating Degree Days 26 18  
Month to date heating degree days 150 120  
Since 1 July heating degree days 494 578  
Cooling Degree Days 0 0  
Month to date cooling degree days 0 0  
Year to date cooling degree days 834 744  
Moisture  
Dew Point 30 °F    
Average Humidity 78    
Maximum Humidity 92    
Minimum Humidity 64    
Precipitation  
Precipitation 0.40 in 0.15 in 1.96 in (1951)
Month to date precipitation 0.40 0.98  
Year to date precipitation 35.13 39.43  
Snow  
Snow 1.30 in 0.00 in T in (2010)
Month to date snowfall 1.3 0.1  
Since 1 July snowfall 1.3 0.1  
Since 1 September snowfall 1.3 0.1  
Snow Depth 0.00 in    
Sea Level Pressure  
Sea Level Pressure 29.85 in    
Wind  
Wind Speed 19 mph (NNE)    
Max Wind Speed 33 mph    
Max Gust Speed 43 mph    
Visibility 5 miles    
Events Rain , Snow    
T = Trace of Precipitation, MM = Missing Value Source: NWS Daily Summary

Daily Weather History Graph

Daily Weather History Graph

Search for Another Location

Airport or City:

Trip Planner

Search our weather history database for the weather conditions in past years. The results will help you decide how hot, cold, wet, or windy it might be!

Date:

Astronomy

Nov. 07, 2012 Rise Set
Actual Time 6:25 AM EST 4:32 PM EST
Civil Twilight 5:56 AM EST 5:01 PM EST
Nautical Twilight 5:23 AM EST 5:35 PM EST
Astronomical Twilight 4:50 AM EST 6:07 PM EST
Moon No Moon Rise 12:45 PM EST (11/7)
Length of Visible Light 11h 05m
Length of Day
10h 06m
Last Quarter, 43% of the Moon is Illuminated
Nov 7
Last Quarter
Nov 13
New
Nov 20
First Quarter
Nov 28
Full
Dec 6
Last Quarter

Hourly Weather History & Observations

Time (EST) Temp. Windchill Dew Point Humidity Pressure Visibility Wind Dir Wind Speed Gust Speed Precip Events Conditions
12:51 AM 34.0 °F 26.6 °F 25.0 °F 70% 30.13 in 10.0 mi North 9.2 mph - N/A   Overcast
1:51 AM 34.0 °F 27.2 °F 26.1 °F 73% 30.11 in 10.0 mi North 8.1 mph - N/A   Overcast
2:51 AM 36.0 °F 28.5 °F 27.0 °F 70% 30.09 in 10.0 mi North 10.4 mph - N/A   Overcast
3:51 AM 37.0 °F 28.9 °F 27.0 °F 67% 30.06 in 10.0 mi North 12.7 mph - N/A   Overcast
4:51 AM 37.9 °F 30.5 °F 28.9 °F 70% 30.03 in 10.0 mi NNE 11.5 mph - N/A   Overcast
5:51 AM 37.4 °F 29.8 °F 28.4 °F 70% 30.01 in 10.0 mi North 11.5 mph - N/A   Overcast
6:51 AM 37.0 °F 27.0 °F 27.0 °F 67% 29.97 in 10.0 mi North 18.4 mph - N/A   Overcast
7:51 AM 39.0 °F 30.6 °F 28.0 °F 65% 29.98 in 10.0 mi North 15.0 mph 19.6 mph N/A   Overcast
8:51 AM 44.1 °F 35.9 °F 33.1 °F 65% 29.96 in 10.0 mi NNE 19.6 mph 31.1 mph N/A   Overcast
9:51 AM 45.0 °F 36.9 °F 33.1 °F 63% 29.93 in 10.0 mi NNE 20.7 mph 39.1 mph N/A   Overcast
10:51 AM 45.0 °F 37.1 °F 33.1 °F 63% 29.92 in 10.0 mi NNE 19.6 mph 27.6 mph N/A   Overcast
11:51 AM 41.0 °F 31.6 °F 32.0 °F 70% 29.88 in 10.0 mi North 20.7 mph 25.3 mph 0.00 in Rain Light Rain
12:06 PM 39.2 °F 30.2 °F 33.8 °F 81% 29.87 in 5.0 mi NNE 17.3 mph 31.1 mph N/A Rain Light Rain
12:51 PM 37.9 °F 27.6 °F 34.0 °F 86% 29.85 in 3.0 mi North 20.7 mph 26.5 mph 0.04 in Rain Rain
1:18 PM 37.4 °F 27.5 °F 33.8 °F 87% 29.83 in 3.0 mi North 18.4 mph 25.3 mph 0.03 in Rain Rain
1:51 PM 37.0 °F 27.4 °F 35.1 °F 93% 29.82 in 3.0 mi North 17.3 mph 27.6 mph 0.08 in Rain Light Rain
2:51 PM 37.0 °F 25.6 °F 34.0 °F 89% 29.80 in 3.0 mi North 24.2 mph 34.5 mph 0.05 in Rain Light Rain
3:51 PM 34.0 °F 23.0 °F 32.0 °F 92% 29.79 in 2.5 mi North 18.4 mph 26.5 mph 0.06 in Rain , Snow Light Snow
3:58 PM 33.8 °F 21.9 °F 32.0 °F 93% 29.79 in 1.8 mi NNE 21.9 mph 27.6 mph 0.01 in Rain , Snow Light Snow
4:15 PM 33.8 °F 21.6 °F 30.2 °F 87% 29.80 in 0.8 mi NNE 23.0 mph 31.1 mph 0.04 in Snow Light Snow
4:51 PM 33.1 °F 20.6 °F 30.9 °F 92% 29.78 in 0.8 mi North 23.0 mph 31.1 mph 0.08 in Snow Light Snow
5:51 PM 32.0 °F 19.5 °F 30.2 °F 93% 29.77 in 1.2 mi North 21.9 mph 32.2 mph N/A Snow Light Snow
6:51 PM 33.1 °F 21.2 °F 30.9 °F 92% 29.78 in 1.2 mi North 20.7 mph 33.4 mph 0.02 in Snow Light Snow
7:24 PM 32.0 °F 19.5 °F 30.2 °F 93% 29.75 in 0.8 mi North 21.9 mph 38.0 mph 0.00 in Snow Light Snow
7:51 PM 32.0 °F 18.4 °F 30.0 °F 92% 29.75 in 0.8 mi North 26.5 mph 34.5 mph 0.01 in Snow Light Snow
8:07 PM 32.0 °F 18.9 °F 30.2 °F 93% 29.75 in 1.0 mi North 24.2 mph 32.2 mph 0.00 in Snow Light Snow
8:20 PM 32.0 °F 18.4 °F 30.2 °F 93% 29.75 in 0.8 mi North 26.5 mph 35.7 mph 0.00 in Snow Light Snow
8:29 PM 32.0 °F 18.6 °F 30.2 °F 93% 29.75 in 1.0 mi North 25.3 mph 36.8 mph 0.00 in Snow Light Snow
8:37 PM 32.0 °F 18.1 °F 30.2 °F 93% 29.74 in 2.0 mi North 27.6 mph 39.1 mph 0.00 in Snow Light Snow
8:51 PM 32.0 °F 17.6 °F 30.0 °F 92% 29.73 in 2.0 mi North 29.9 mph 38.0 mph 0.03 in Snow Light Snow
9:51 PM 33.1 °F 19.1 °F 28.9 °F 85% 29.70 in 2.5 mi North 29.9 mph 40.3 mph 0.00 in Snow Light Snow
10:10 PM 32.0 °F 17.4 °F 28.4 °F 87% 29.69 in 3.0 mi North 31.1 mph 40.3 mph 0.00 in Snow Light Snow
10:51 PM 32.0 °F 17.9 °F 28.9 °F 88% 29.68 in 3.0 mi North 28.8 mph 39.1 mph 0.00 in Snow Light Snow
11:51 PM 32.0 °F 18.1 °F 28.9 °F 88% 29.67 in 5.0 mi North 27.6 mph 40.3 mph 0.00 in Snow Light Snow